Погода в Верховцево

Украина / Днепропетровская область     48°29′06″N   34°15′13″E
темп.,
°C
ветер,
м/с
пор.,
м/с
влажн.,
%
обл.,
%
осадки,
мм/ч
давл.,
гПа
погр.,
м
16 мая, вс
вс1600:00+14зюз33730 0.0 101332
03:00+13ююз11755 0.0 101310
06:00+14ссв0172100 0.0 101210
09:00+20св3359100 0.0 1012384
12:00+24всв444796 0.0 10111613
15:00+25всв45395 0.0 10101906
18:00+24св4753100 0.0 1008422
21:00+17св4128098 0.3 1008216
17 мая, пн
пн1700:00+17с4592100 2.3 100685
03:00+16св4994100 2.4 1004183
06:00+16св61187100 0.0 1000178
09:00+20юв346843 0.0 1002519
12:00+23юв676476 0.3 10021159
15:00+23ю8965100 0.4 10021358
18:00+21ю810734 0.1 10031056
21:00+16ю8148711 0.1 1005673
18 мая, вт
вт1800:00+15ююз714879 0.0 1006599
03:00+13ююз51389100 0.0 1006344
06:00+13ю51087100 0.0 1007270
09:00+18ююв6870100 0.0 1007689
12:00+21ю79555 0.0 10061407
15:00+20ююз91066100 1.3 10051189
18:00+16ю61190100 0.5 1005582
21:00+15ю51189100 1.1 1004446
19 мая, ср
ср1900:00+13ю51093100 0.1 1004355
03:00+12юз599593 0.1 1004437
06:00+10ююз6109361 0.0 1005534
09:00+11ююз71092100 0.0 1005691
12:00+12ююз71194100 0.8 1005706
15:00+12зюз81291100 3.5 1006821
18:00+11зюз91592100 0.4 1008722
21:00+11зюз7158671 0.7 1010802
20 мая, чт
чт2000:00+11зюз614903 0.0 1011427
03:00+9юз49940 0.0 1012186
06:00+9юз379390 0.0 1012144
09:00+15юз356999 0.0 1013558
12:00+19ююз345599 0.0 10121153
15:00+21юв344993 0.0 10111682
18:00+20вюв5753100 0.0 10091373
21:00+16юв41270100 0.1 1009352